WHDW 03-03

operational
NORAD ID: 63689 Int'l Des: 2025-086 Owner: ZXW Country: CN
LEOCIRCULARPOLARONEWEB_TYPE

关于 WHDW 03-03

正在加载描述...

实时位置

正在加载3D地球...

即将过境

高度历史

Altitude vs Time

uPlot chart will show altitude changes over time

两行轨道根数

1 63689U 25086C 26063.17891732 .00000070 00000-0 12983-3 0 9991
2 63689 86.5118 348.4241 0001783 92.3797 267.7541 13.24421341 40961
Epoch: Mar 4, 2026 • Age: 11 hours

当前状态

高度 1189.9 km
速度 7.26 km/s
星下点 -53.71°S, 12.22°E
发射日期 Apr 28, 2025
运行时间 0.8 years
类型 other

技术详情

分类 Payload
质量 800.00 kg
干质量 800.00 kg
总质量 800.00 kg
长度 3.00 m
直径 1.00 m
跨度 10.00 m
形状 Box + 2 Pan
制造商 CAST
平台类型 Xingwang CL
阶段状态 In Orbit
所有者/国家 ZXW/CN

大型星座

Loading constellations...